Date String (YYYY-MM-DD hh:mm:ss) UTC,Instrument flags,Ambient pressure (hPa),Sample flow (lpm),Bypass flow (lpm),Sample temperature (°C),Ambient temperature (°C),ASC tube jacket temperature (°C),LED temperature (°C),Box temperature (°C),Sample RH (%),Span deviation,Mass concentration (μg/m³),Mass concentration (μg/m³),Mass concentration (μg/m³)
DateTimeUTC,F1_M11,P_M11,Q1_M11,Q2_M11,T1_M11,T2_M11,T3_M11,T4_M11,T5_M11,U1_M11,ZSPAN_M11,X0_M11,X2_M11,X1_M11
2023-05-13 17:00:00,,0836.5,4.99,0.00,27.1,25.9,00.0,35.4,28.8,21.0,0000.0,0001.79,0001.15,0000.94
2023-05-13 17:01:00,,0836.5,5.00,0.00,27.2,25.9,00.0,35.4,28.9,20.3,0000.0,0001.82,0001.15,0000.94
2023-05-13 17:02:00,,0836.5,5.01,0.00,27.2,25.9,00.0,35.4,28.9,20.5,0000.0,0001.80,0001.13,0000.93
2023-05-13 17:03:00,,0836.5,5.00,0.00,27.2,25.9,00.0,35.4,28.9,21.1,0000.0,0003.43,0001.12,0000.92
2023-05-13 17:04:00,,0836.4,5.00,0.00,27.2,25.9,00.0,35.4,28.9,21.0,0000.0,0003.53,0001.12,0000.91
2023-05-13 17:05:00,,0836.4,5.00,0.00,27.2,26.0,00.0,35.4,28.9,21.3,0000.0,0003.49,0001.11,0000.91
2023-05-13 17:06:00,,0836.4,4.99,0.00,27.2,26.0,00.0,35.5,28.9,21.5,0000.0,0003.48,0001.11,0000.91
2023-05-13 17:07:00,,0836.5,4.99,0.00,27.3,26.0,00.0,35.5,29.0,21.1,0000.0,0003.49,0001.12,0000.92
2023-05-13 17:08:00,,0836.4,5.00,0.00,27.3,26.0,00.0,35.5,29.0,21.3,0000.0,0003.50,0001.12,0000.93
2023-05-13 17:09:00,,0836.4,5.01,0.00,27.3,26.0,00.0,35.5,29.0,21.6,0000.0,0003.57,0001.14,0000.92
2023-05-13 17:10:00,,0836.5,5.00,0.00,27.3,26.0,00.0,35.5,29.0,21.3,0000.0,0003.63,0001.19,0000.94
2023-05-13 17:11:00,,0836.5,5.00,0.00,27.3,26.1,00.0,35.5,29.0,21.3,0000.0,0003.65,0001.20,0000.95
2023-05-13 17:12:00,,0836.5,5.00,0.00,27.3,26.1,00.0,35.6,29.0,20.9,0000.0,0003.63,0001.20,0000.96
2023-05-13 17:13:00,,0836.5,5.00,0.00,27.3,26.1,00.0,35.6,29.1,20.8,0000.0,0003.44,0001.21,0000.96
2023-05-13 17:14:00,,0836.5,4.99,0.00,27.4,26.1,00.0,35.6,29.1,21.5,0000.0,0001.72,0001.20,0000.96
2023-05-13 17:15:00,,0836.6,5.00,0.00,27.4,26.1,00.0,35.6,29.1,21.3,0000.0,0001.68,0001.19,0000.95
2023-05-13 17:16:00,,0836.6,5.00,0.00,27.4,26.1,00.0,35.6,29.1,20.9,0000.0,0001.66,0001.18,0000.94
2023-05-13 17:17:00,,0836.6,5.01,0.00,27.4,26.1,00.0,35.6,29.1,20.9,0000.0,0001.66,0001.17,0000.93
2023-05-13 17:18:00,,0836.6,5.00,0.00,27.4,26.1,00.0,35.6,29.1,20.6,0000.0,0001.66,0001.16,0000.92
2023-05-13 17:19:00,,0836.6,5.00,0.00,27.4,26.1,00.0,35.7,29.1,20.6,0000.0,0001.68,0001.16,0000.91
2023-05-13 17:20:00,,0836.6,4.99,0.00,27.4,26.1,00.0,35.7,29.1,21.1,0000.0,0001.65,0001.15,0000.90
2023-05-13 17:21:00,,0836.6,4.99,0.00,27.4,26.1,00.0,35.7,29.1,21.6,0000.0,0001.71,0001.15,0000.89
2023-05-13 17:22:00,,0836.6,5.01,0.00,27.5,26.2,00.0,35.7,29.1,21.6,0000.0,0001.75,0001.15,0000.88
2023-05-13 17:23:00,,0836.6,5.01,0.00,27.5,26.2,00.0,35.7,29.2,21.0,0000.0,0001.75,0001.14,0000.87
2023-05-13 17:24:00,,0836.6,5.01,0.00,27.5,26.2,00.0,35.7,29.2,20.9,0000.0,0001.74,0001.14,0000.88
2023-05-13 17:25:00,,0836.5,4.99,0.00,27.5,26.2,00.0,35.7,29.2,21.0,0000.0,0001.71,0001.14,0000.89
2023-05-13 17:26:00,,0836.5,4.99,0.00,27.5,26.2,00.0,35.7,29.2,21.3,0000.0,0001.69,0001.15,0000.90
2023-05-13 17:27:00,,0836.6,5.01,0.00,27.5,26.2,00.0,35.7,29.2,21.4,0000.0,0001.66,0001.14,0000.91
2023-05-13 17:28:00,,0836.6,5.01,0.00,27.5,26.2,00.0,35.8,29.2,22.6,0000.0,0001.68,0001.15,0000.91
2023-05-13 17:29:00,,0836.6,4.99,0.00,27.5,26.2,00.0,35.8,29.2,22.0,0000.0,0001.71,0001.16,0000.93
2023-05-13 17:30:00,,0836.6,4.99,0.00,27.5,26.3,00.0,35.8,29.2,21.8,0000.0,0001.78,0001.21,0000.94
2023-05-13 17:31:00,,0836.6,5.00,0.00,27.6,26.3,00.0,35.8,29.2,21.9,0000.0,0001.78,0001.20,0000.94
2023-05-13 17:32:00,,0836.6,4.99,0.00,27.6,26.3,00.0,35.8,29.2,22.3,0000.0,0001.66,0001.18,0000.94
2023-05-13 17:33:00,,0836.7,5.00,0.00,27.6,26.3,00.0,35.8,29.3,22.6,0000.0,0001.50,0001.13,0000.94
2023-05-13 17:34:00,,0836.7,5.00,0.00,27.6,26.3,00.0,35.8,29.3,22.5,0000.0,0001.54,0001.14,0000.94
2023-05-13 17:35:00,,0836.7,5.00,0.00,27.6,26.3,00.0,35.9,29.3,21.8,0000.0,0001.80,0001.12,0000.92
2023-05-13 17:36:00,,0836.7,5.00,0.00,27.6,26.3,00.0,35.9,29.3,22.1,0000.0,0002.26,0001.13,0000.91
2023-05-13 17:37:00,,0836.6,5.00,0.00,27.6,26.4,00.0,35.9,29.3,22.0,0000.0,0002.26,0001.14,0000.91
2023-05-13 17:38:00,,0836.7,5.00,0.00,27.6,26.4,00.0,35.9,29.3,21.8,0000.0,0002.26,0001.12,0000.90
2023-05-13 17:39:00,,0836.7,5.01,0.00,27.7,26.4,00.0,35.9,29.4,21.5,0000.0,0002.29,0001.13,0000.90
2023-05-13 17:40:00,,0836.7,5.01,0.00,27.7,26.4,00.0,35.9,29.4,21.4,0000.0,0002.26,0001.11,0000.88
2023-05-13 17:41:00,,0836.7,5.01,0.00,27.7,26.4,00.0,35.9,29.4,20.9,0000.0,0002.24,0001.09,0000.87
2023-05-13 17:42:00,,0836.7,5.00,0.00,27.7,26.5,00.0,36.0,29.4,21.2,0000.0,0002.28,0001.08,0000.86
2023-05-13 17:43:00,,0836.7,5.00,0.00,27.7,26.5,00.0,36.0,29.4,21.1,0000.0,0002.31,0001.09,0000.85
2023-05-13 17:44:00,,0836.7,5.00,0.00,27.8,26.5,00.0,36.0,29.4,21.9,0000.0,0002.34,0001.10,0000.83
2023-05-13 17:45:00,,0836.7,4.99,0.00,27.8,26.5,00.0,36.0,29.5,21.3,0000.0,0002.30,0001.09,0000.83
2023-05-13 17:46:00,,0836.6,5.00,0.00,27.8,26.5,00.0,36.0,29.5,21.8,0000.0,0002.16,0001.09,0000.82
2023-05-13 17:47:00,,0836.6,5.00,0.00,27.8,26.5,00.0,36.0,29.5,21.3,0000.0,0001.60,0001.08,0000.81
2023-05-13 17:48:00,,0836.6,4.99,0.00,27.8,26.5,00.0,36.0,29.5,21.1,0000.0,0001.52,0001.03,0000.79
2023-05-13 17:49:00,,0836.7,4.99,0.00,27.8,26.6,00.0,36.1,29.5,21.3,0000.0,0001.57,0001.04,0000.77
2023-05-13 17:50:00,,0836.6,5.00,0.00,27.8,26.6,00.0,36.1,29.5,21.1,0000.0,0001.60,0001.04,0000.76
2023-05-13 17:51:00,,0836.6,5.00,0.00,27.9,26.6,00.0,36.1,29.5,20.8,0000.0,0001.60,0001.03,0000.76
2023-05-13 17:52:00,,0836.6,5.01,0.00,27.9,26.6,00.0,36.1,29.5,20.6,0000.0,0001.58,0001.01,0000.74
2023-05-13 17:53:00,,0836.6,5.01,0.00,27.9,26.6,00.0,36.1,29.5,20.6,0000.0,0002.07,0000.98,0000.73
2023-05-13 17:54:00,,0836.7,5.00,0.00,27.9,26.6,00.0,36.1,29.6,21.2,0000.0,0002.44,0000.97,0000.73
2023-05-13 17:55:00,,0836.6,5.00,0.00,27.9,26.6,00.0,36.1,29.6,21.1,0000.0,0003.74,0000.94,0000.74
2023-05-13 17:56:00,,0836.7,5.00,0.00,27.9,26.7,00.0,36.2,29.6,20.7,0000.0,0003.74,0000.94,0000.73
2023-05-13 17:57:00,,0836.7,5.00,0.00,27.9,26.7,00.0,36.2,29.6,20.6,0000.0,0003.64,0000.92,0000.73
2023-05-13 17:58:00,,0836.7,5.00,0.00,28.0,26.7,00.0,36.2,29.6,20.8,0000.0,0003.57,0000.88,0000.73
2023-05-13 17:59:00,,0836.7,5.00,0.00,28.0,26.7,00.0,36.2,29.6,20.9,0000.0,0004.77,0000.90,0000.72
